TimePDT,TemperatureF,Dew PointF,Humidity,Sea Level PressureIn,VisibilityMPH,Wind Direction,Wind SpeedMPH,Gust SpeedMPH,PrecipitationIn,Events,Conditions,WindDirDegrees,DateUTC
12:58 AM,43.0,40.8,92,30.24,10.0,South,6.9,-,N/A,,Mostly Cloudy,170,2013-05-14 07:58:00
1:58 AM,44.6,42.1,91,30.24,10.0,South,8.1,-,N/A,,Mostly Cloudy,170,2013-05-14 08:58:00
2:58 AM,42.6,40.8,93,30.24,10.0,South,6.9,-,N/A,,Mostly Cloudy,170,2013-05-14 09:58:00
3:58 AM,43.0,41.2,93,30.25,10.0,South,5.8,-,N/A,,Overcast,180,2013-05-14 10:58:00
4:58 AM,44.4,41.9,91,30.25,10.0,East,2.3,-,N/A,,Overcast,90,2013-05-14 11:58:00
5:58 AM,44.4,41.9,91,30.25,10.0,SSE,3.5,-,N/A,,Overcast,160,2013-05-14 12:58:00
6:58 AM,46.0,42.4,87,30.26,10.0,South,3.5,-,N/A,,Overcast,190,2013-05-14 13:58:00
7:58 AM,49.6,42.4,76,30.25,10.0,South,5.8,-,N/A,,Mostly Cloudy,180,2013-05-14 14:58:00
8:58 AM,53.1,43.7,71,30.25,10.0,SSW,5.8,-,N/A,,Clear,200,2013-05-14 15:58:00
9:33 AM,55.4,42.8,63,30.23,10.0,South,5.8,-,N/A,,Mostly Cloudy,180,2013-05-14 16:33:00
9:43 AM,53.6,41.0,62,30.23,10.0,Variable,3.5,-,N/A,,Scattered Clouds,0,2013-05-14 16:43:00
9:58 AM,54.7,41.9,62,30.25,10.0,ESE,1.2,-,N/A,,Mostly Cloudy,120,2013-05-14 16:58:00
10:58 AM,56.8,42.4,59,30.25,10.0,Variable,2.3,-,N/A,,Scattered Clouds,0,2013-05-14 17:58:00
11:58 AM,56.3,40.6,56,30.24,10.0,NNW,2.3,-,N/A,,Mostly Cloudy,340,2013-05-14 18:58:00
12:58 PM,60.3,41.9,51,30.22,10.0,Variable,2.3,-,N/A,,Mostly Cloudy,0,2013-05-14 19:58:00
1:58 PM,61.5,39.6,44,30.21,10.0,Variable,2.3,-,N/A,,Partly Cloudy,0,2013-05-14 20:58:00
2:58 PM,63.9,40.6,43,30.19,10.0,North,5.8,-,N/A,,Scattered Clouds,10,2013-05-14 21:58:00
3:58 PM,64.0,38.1,38,30.17,10.0,North,8.1,-,N/A,,Mostly Cloudy,360,2013-05-14 22:58:00
4:58 PM,64.8,36.1,35,30.15,10.0,Variable,4.6,-,N/A,,Scattered Clouds,0,2013-05-14 23:58:00
5:58 PM,65.1,33.4,31,30.15,10.0,NW,8.1,-,N/A,,Partly Cloudy,310,2013-05-15 00:58:00
6:58 PM,64.0,37.0,37,30.14,10.0,Variable,2.3,-,N/A,,Clear,0,2013-05-15 01:58:00
7:58 PM,61.9,37.9,41,30.13,10.0,WNW,5.8,-,N/A,,Partly Cloudy,300,2013-05-15 02:58:00
8:58 PM,59.4,38.3,46,30.14,10.0,South,2.3,-,N/A,,Scattered Clouds,180,2013-05-15 03:58:00
9:58 PM,57.0,41.5,56,30.15,10.0,WNW,6.9,-,N/A,,Clear,290,2013-05-15 04:58:00
10:58 PM,55.4,41.5,60,30.15,10.0,Calm,Calm,-,N/A,,Clear,0,2013-05-15 05:58:00
11:58 PM,48.6,42.6,80,30.16,10.0,SSE,2.3,-,N/A,,Clear,160,2013-05-15 06:58:00